Location: Eppenbrunn
(49.1158°N, 7.5601°E)
Time: 23:11:45
(UTC+00:00)

STARLINK-52 - Pass Details

Date: 09 April 2020
Orbit: 392 x 396 km, 53.0° (Epoch: 27 May)

Event Time Altitude Azimuth Distance (km) Brightness Sun altitude
Rises 19:09:04 0° 225° (SW) 2,280 7.1 -9.4°
Reaches altitude 10° 19:11:11 10° 218° (SW) 1,429 5.9 -9.7°
Maximum altitude 19:14:13 42° 146° (SE) 580 3.4 -10.2°
Enters shadow 19:17:12 11° 75° (ENE) 1,409 5.3 -10.6°
